User: anonymous   Login
Location: Cincinnati Observatory Center
(39.1389°N, 84.4225°W)
Time: 16:15:52
(UTC-04:00)
Language:

COSMOS 2428 - Orbit

View from above orbital plane
View from above orbital plane
View from above satellite
View from above satellite

Ground track
Ground track

The orbit data is extracted from the following two-line orbital elements,

1 31792U 07029A   16238.35232219 -.00000333  00000-0 -15468-3 0  9995
2 31792  70.9315 313.1492 0010017 351.9999   8.0960 14.12328907472302
Epoch (UTC): 25 August 2016 08:27:20
Eccentricity: 0.0010017
inclination: 70.9315°
perigee height: 844 km
apogee height: 858 km
right ascension of ascending node: 313.1492°
argument of perigee: 351.9999°
revolutions per day: 14.12328907
mean anomaly at epoch: 8.0960°
orbit number at epoch: 47230

The dashed part of the orbit path shows where the satellite is in the earth's shadow,  

DLR